Wind_Speed
13 14 14 14 15 15 15 14 14 14 14 15 16 16 15 15 15 14 14 14 13 12 13 12 13 13 13 13 13 14 14 14 15 15 16 16 16 17
15 15 16 16 16 16 16 17 17 16 16 16 17 18 18 17 17 16 16 15 14 14 14 15 15 15 14 14 14 15 14 15 15 16 16 17 17 17
17 18 18 18 18 18 19 19 19 19 18 17 18 19 19 19 18 17 17 17 17 16 16 16 16 16 16 16 16 16 16 16 16 16 17 17 18 18
20 20 21 20 20 20 20 21 21 21 20 20 20 20 20 20 19 19 19 19 19 19 19 18 18 18 18 18 18 18 18 18 18 18 18 18 19 19
22 22 22 21 21 21 22 22 22 22 23 22 22 22 22 22 22 22 21 21 21 21 21 21 21 21 21 21 21 20 20 20 20 20 19 19 19 20
23 23 23 22 21 21 22 23 23 24 24 24 24 24 23 23 23 23 23 23 23 23 23 23 23 23 24 24 23 23 22 22 22 22 21 20 21 21
24 23 23 22 23 23 24 25 25 25 25 25 25 25 24 24 25 24 24 24 24 24 24 24 25 25 25 25 25 24 24 24 24 23 23 23 24 23
24 24 24 25 25 26 26 26 25 25 24 24 24 24 24 24 25 25 24 25 25 25 25 26 26 26 25 25 25 25 25 26 26 26 26 26 26 25
25 26 26 26 27 26 26 26 26 26 26 26 26 26 26 25 24 24 24 24 25 25 26 26 26 26 26 26 26 26 27 27 28 28 28 28 28 27
26 26 26 26 27 27 27 27 27 27 27 28 28 28 28 27 26 26 26 26 26 27 28 28 28 27 27 27 27 28 28 28 29 29 29 29 29 28
27 27 27 28 28 28 28 28 28 28 29 29 29 30 30 29 28 28 27 27 28 29 29 29 29 29 29 29 29 30 30 30 30 30 30 30 30 30
28 29 29 29 29 30 30 30 30 30 30 31 31 31 31 31 31 30 30 30 31 31 30 30 30 30 30 30 31 31 31 31 31 31 31 32 31 31
29 30 31 31 31 32 32 32 32 32 32 32 32 32 33 32 32 32 32 32 32 32 32 32 32 32 32 32 32 33 33 32 32 32 33 33 33 33
30 32 33 33 33 33 34 34 33 33 33 33 33 33 34 34 34 33 34 34 34 34 34 33 33 34 34 33 33 33 34 34 34 34 34 34 34 34
31 32 32 33 33 34 34 34 34 34 34 34 34 34 34 35 35 35 35 36 36 36 36 35 34 34 35 35 35 35 35 35 35 34 35 35 34 34
32 33 34 34 34 34 35 35 35 36 36 36 36 36 36 36 36 36 36 36 36 36 37 37 36 36 36 37 36 35 35 35 35 36 35 35 35 35
33 34 35 36 36 35 36 36 37 37 37 37 38 37 37 37 37 37 37 37 38 38 37 37 37 37 37 37 36 36 36 36 37 37 37 36 36 36
35 36 36 36 36 37 37 38 38 39 39 40 39 39 38 38 38 38 37 37 38 38 38 38 38 38 38 37 38 37 38 38 38 38 38 38 37 37
37 37 37 37 38 38 38 39 39 40 40 40 40 39 39 39 38 38 38 39 39 39 39 39 39 39 39 39 39 39 39 39 39 39 39 39 39 38
39 39 39 39 39 39 40 40 41 41 41 41 41 40 40 39 39 39 39 39 39 39 39 40 40 40 40 40 39 39 39 39 39 39 39 39 39 39
40 40 41 41 41 41 41 41 42 42 42 42 41 41 40 40 40 40 40 40 40 40 40 40 41 41 40 40 40 40 40 40 40 39 39 39 38 38
41 41 42 42 42 42 42 42 42 42 42 42 42 41 41 40 40 40 41 40 40 39 39 39 40 40 40 40 40 40 40 40 40 40 39 39 39 38
41 41 41 42 42 42 42 42 41 41 40 40 40 40 40 40 40 40 39 39 39 39 39 40 39 39 38 38 38 39 39 39 39 38 38 38 38 38
Wind_Direction
304 306 307 303 302 303 301 298 298 296 294 292 290 294 292 290 288 290 289 287 285 284 285 285 287 289 290 288 288 285 282 281 283 282 281 280 279 278
299 303 303 301 300 300 298 296 296 295 292 291 289 289 291 290 289 285 286 285 282 281 281 282 284 286 287 287 286 286 281 281 283 284 283 281 280 280
296 298 299 297 298 298 297 294 293 292 291 291 290 287 288 290 291 286 285 284 282 281 280 280 283 284 284 285 285 284 283 284 284 283 285 282 279 279
294 295 297 295 296 296 296 296 294 292 291 290 289 289 286 288 288 285 282 282 282 282 281 280 280 283 284 285 284 283 282 282 283 282 282 282 281 280
294 294 296 294 296 297 296 297 296 294 292 290 289 288 286 284 284 284 283 280 279 279 279 280 280 281 283 284 282 282 281 281 282 281 282 282 282 281
293 294 294 294 294 296 296 296 296 295 293 292 291 289 287 284 284 284 283 281 278 278 277 278 279 280 282 281 280 280 281 282 283 282 282 281 280 281
290 290 291 292 293 296 295 293 293 293 293 292 291 290 287 283 283 283 282 281 279 279 278 278 278 280 280 279 278 277 277 279 282 282 282 281 280 280
290 290 290 292 294 295 294 294 294 293 292 291 291 290 289 286 284 282 281 281 280 280 280 280 279 280 281 279 278 277 277 279 280 281 281 281 281 280
289 290 289 290 292 294 295 295 296 294 293 293 292 291 290 288 285 284 282 281 281 281 281 281 281 280 281 280 279 279 279 280 280 279 280 280 281 281
291 291 292 291 293 294 295 295 294 294 293 293 293 291 289 288 285 283 281 280 281 281 281 281 280 279 279 279 278 278 278 278 278 278 278 278 279 279
289 289 291 292 292 293 294 294 293 293 293 291 291 291 289 287 284 282 279 279 280 280 280 281 280 278 277 277 278 279 279 278 278 278 277 277 278 278
288 289 289 289 290 291 292 293 293 292 292 290 289 289 288 286 284 282 280 279 280 279 279 279 279 279 278 278 278 279 279 279 278 278 278 278 278 278
288 289 289 289 290 290 291 292 291 291 290 289 288 288 288 287 286 283 281 281 280 280 279 279 279 279 278 278 278 279 279 279 279 277 277 278 278 278
289 289 290 289 289 289 290 290 290 290 289 288 288 288 288 287 286 284 282 282 281 280 280 279 278 278 278 279 278 278 278 278 278 277 276 277 277 277
290 290 290 290 290 290 290 290 290 290 289 287 287 287 287 287 286 285 283 283 282 280 280 278 277 276 277 278 277 277 277 277 276 276 275 276 277 277
291 291 291 290 290 291 292 291 290 289 288 287 286 286 287 287 286 285 284 283 283 282 280 278 277 276 275 275 275 276 276 276 276 276 275 275 276 277
293 294 293 292 291 291 292 291 291 289 289 287 287 286 286 286 286 284 284 284 283 281 280 279 278 278 277 276 275 275 275 275 274 274 275 276 276 276
292 294 293 292 291 290 290 291 291 290 290 289 288 286 286 285 284 284 283 283 282 281 279 279 277 278 278 277 277 276 275 275 275 275 275 275 275 276
291 292 292 291 290 290 290 291 291 291 292 291 289 286 285 285 284 283 283 282 282 280 279 278 278 278 279 278 277 276 275 275 274 274 274 275 275 276
290 291 291 291 290 291 291 291 292 292 292 291 290 288 286 285 284 284 283 282 281 280 279 279 279 278 278 277 277 277 277 277 275 274 275 275 275 275
290 291 291 290 290 290 291 291 292 293 292 291 291 290 287 285 284 283 282 281 280 279 278 279 279 278 278 278 277 277 277 276 275 274 274 274 275 275
290 290 290 290 290 290 290 291 291 292 292 291 290 289 287 285 284 283 282 281 281 280 279 279 279 278 277 278 278 277 277 277 277 276 275 275 276 275
290 290 290 289 289 290 290 290 290 291 292 292 291 289 287 286 285 284 283 282 281 280 279 279 278 277 277 277 277 277 277 277 276 276 276 276 276 276
Height
5872 5870 5869 5867 5865 5864 5863 5862 5861 5860 5859 5857 5856 5855 5854 5853 5851 5850 5849 5848 5848 5847 5846 5846 5845 5844 5844 5843 5842 5841 5841 5840 5840 5839 5839 5838 5838 5837
5869 5867 5866 5864 5862 5860 5859 5858 5856 5855 5854 5853 5852 5851 5849 5848 5847 5846 5845 5844 5843 5842 5842 5841 5841 5840 5839 5839 5838 5837 5836 5836 5835 5835 5834 5834 5833 5833
5865 5863 5861 5860 5858 5856 5855 5853 5852 5850 5849 5848 5847 5846 5845 5843 5842 5841 5841 5840 5839 5838 5837 5837 5836 5836 5835 5834 5833 5833 5832 5831 5830 5830 5829 5829 5828 5828
5860 5858 5856 5855 5853 5851 5849 5848 5846 5845 5844 5843 5842 5840 5839 5838 5837 5836 5836 5835 5833 5833 5832 5831 5831 5830 5830 5829 5829 5828 5827 5826 5825 5824 5824 5823 5823 5822
5854 5852 5851 5849 5848 5846 5844 5842 5841 5840 5839 5837 5836 5835 5834 5832 5831 5830 5829 5829 5828 5827 5826 5826 5825 5824 5824 5823 5823 5822 5821 5820 5819 5819 5818 5817 5817 5816
5848 5846 5845 5843 5842 5840 5838 5837 5835 5834 5832 5831 5829 5828 5827 5826 5825 5824 5823 5822 5821 5820 5820 5819 5818 5818 5817 5817 5816 5815 5815 5814 5813 5813 5812 5811 5811 5810
5842 5840 5839 5837 5836 5834 5832 5831 5829 5827 5826 5824 5823 5821 5820 5818 5817 5816 5815 5815 5814 5813 5812 5812 5811 5810 5809 5809 5809 5808 5808 5807 5807 5806 5805 5805 5804 5803
5836 5835 5833 5831 5830 5828 5826 5824 5822 5821 5819 5817 5816 5814 5813 5811 5810 5809 5808 5807 5807 5807 5805 5805 5804 5803 5802 5801 5801 5800 5800 5799 5799 5798 5798 5797 5796 5796
5830 5828 5826 5825 5823 5821 5819 5817 5815 5813 5812 5811 5809 5807 5805 5804 5802 5801 5801 5800 5799 5798 5798 5797 5796 5795 5794 5793 5793 5793 5792 5791 5791 5790 5790 5789 5788 5788
5823 5821 5819 5818 5816 5814 5812 5810 5808 5806 5804 5802 5801 5799 5797 5796 5794 5794 5793 5792 5791 5790 5789 5789 5788 5787 5786 5786 5785 5784 5784 5783 5783 5782 5781 5780 5780 5779
5816 5814 5813 5811 5809 5807 5805 5803 5800 5798 5796 5794 5792 5790 5789 5787 5786 5785 5784 5783 5783 5782 5781 5780 5779 5779 5778 5777 5776 5775 5775 5774 5773 5773 5772 5771 5770 5770
5808 5807 5805 5803 5801 5799 5797 5795 5793 5790 5788 5786 5784 5782 5780 5778 5777 5776 5775 5774 5773 5773 5772 5771 5770 5769 5769 5768 5767 5766 5765 5764 5763 5763 5762 5761 5761 5760
5800 5798 5796 5794 5792 5790 5788 5786 5784 5781 5779 5777 5775 5773 5770 5769 5767 5766 5765 5764 5763 5762 5762 5761 5760 5759 5758 5758 5757 5756 5755 5754 5753 5752 5752 5751 5751 5750
5792 5790 5787 5785 5783 5781 5779 5776 5774 5772 5769 5767 5765 5763 5761 5759 5757 5756 5755 5753 5753 5752 5751 5750 5749 5748 5748 5747 5747 5745 5744 5743 5743 5742 5741 5740 5740 5739
5783 5780 5778 5776 5773 5771 5769 5766 5764 5761 5759 5757 5755 5753 5750 5748 5747 5745 5744 5742 5741 5740 5739 5738 5738 5737 5736 5736 5736 5735 5734 5733 5732 5731 5730 5730 5729 5729
5774 5771 5769 5766 5764 5761 5759 5756 5753 5751 5748 5746 5744 5742 5740 5737 5735 5734 5733 5731 5730 5729 5728 5727 5726 5725 5725 5724 5724 5723 5722 5722 5721 5720 5719 5719 5718 5717
5764 5761 5759 5756 5754 5751 5748 5745 5742 5739 5737 5735 5733 5731 5729 5726 5724 5723 5721 5720 5719 5718 5716 5715 5714 5713 5712 5712 5711 5711 5710 5709 5709 5708 5707 5707 5706 5706
5754 5751 5749 5746 5743 5740 5737 5734 5731 5728 5726 5723 5721 5719 5717 5715 5713 5711 5710 5708 5707 5705 5704 5703 5702 5701 5700 5700 5699 5698 5698 5697 5696 5696 5695 5695 5694 5693
5744 5741 5738 5735 5732 5729 5726 5723 5720 5717 5714 5712 5709 5707 5705 5703 5701 5699 5697 5696 5694 5693 5692 5690 5689 5688 5688 5687 5687 5686 5685 5684 5683 5683 5682 5682 5682 5681
5732 5729 5726 5723 5720 5717 5714 5711 5708 5705 5702 5700 5697 5695 5692 5690 5688 5686 5685 5683 5682 5680 5679 5677 5676 5675 5674 5674 5674 5673 5671 5671 5670 5670 5669 5669 5669 5668
5720 5718 5714 5711 5708 5705 5702 5699 5696 5693 5690 5687 5685 5682 5679 5677 5675 5673 5672 5670 5668 5667 5666 5665 5663 5662 5661 5660 5660 5660 5658 5657 5657 5657 5656 5656 5656 5656
5708 5705 5702 5699 5696 5692 5690 5687 5684 5681 5678 5675 5672 5669 5667 5665 5662 5660 5659 5657 5655 5654 5653 5651 5650 5649 5648 5647 5646 5646 5645 5644 5643 5643 5643 5643 5643 5643
5695 5692 5689 5686 5683 5680 5677 5674 5671 5668 5665 5662 5659 5656 5654 5652 5650 5647 5645 5644 5642 5641 5639 5638 5637 5636 5635 5634 5633 5632 5632 5631 5630 5630 5630 5630 5630 5630